Time,TemperatureF,DewpointF,PressureIn,WindDirection,WindDirectionDegrees,WindSpeedMPH,WindSpeedGustMPH,Humidity,HourlyPrecipIn,Conditions,Clouds,dailyrainin,SoftwareType,DateUTC
2013-04-29 00:03:00,50.0,33.0,30.51,South,169,0.0,0.0,52,0.00,,,0.00,,2013-04-29 04:03:00,
2013-04-29 00:13:00,50.0,33.0,30.51,South,169,0.0,0.0,52,0.00,,,0.00,,2013-04-29 04:13:00,
2013-04-29 00:23:00,51.0,33.0,30.51,West,266,0.0,1.0,49,0.00,,,0.00,,2013-04-29 04:23:00,
2013-04-29 00:33:00,51.0,33.0,30.51,NE,37,0.0,3.0,50,0.00,,,0.00,,2013-04-29 04:33:00,
2013-04-29 00:43:00,51.0,33.0,30.51,NE,37,0.0,3.0,50,0.00,,,0.00,,2013-04-29 04:43:00,
2013-04-29 00:52:00,51.0,32.0,30.52,West,264,0.0,2.0,48,0.00,,,0.00,,2013-04-29 04:52:00,
2013-04-29 01:02:00,51.0,31.0,30.52,WSW,253,0.0,2.0,46,0.00,,,0.00,,2013-04-29 05:02:00,
2013-04-29 01:12:00,51.0,31.0,30.52,WSW,253,0.0,2.0,46,0.00,,,0.00,,2013-04-29 05:12:00,
2013-04-29 01:22:00,51.0,30.0,30.51,WSW,252,0.0,3.0,45,0.00,,,0.00,,2013-04-29 05:22:00,
2013-04-29 01:32:00,50.0,30.0,30.51,West,260,0.0,1.0,46,0.00,,,0.00,,2013-04-29 05:32:00,
2013-04-29 01:42:00,50.0,30.0,30.51,West,260,0.0,1.0,46,0.00,,,0.00,,2013-04-29 05:42:00,
2013-04-29 01:52:00,50.0,31.0,30.51,North,9,0.0,1.0,47,0.00,,,0.00,,2013-04-29 05:52:00,
2013-04-29 02:02:00,49.0,30.0,30.51,North,11,0.0,1.0,48,0.00,,,0.00,,2013-04-29 06:02:00,
2013-04-29 02:12:00,49.0,30.0,30.51,North,11,0.0,1.0,48,0.00,,,0.00,,2013-04-29 06:12:00,
2013-04-29 02:22:00,48.0,31.0,30.51,North,11,0.0,0.0,52,0.00,,,0.00,,2013-04-29 06:22:00,
2013-04-29 02:32:00,48.0,32.0,30.50,NNE,30,0.0,1.0,54,0.00,,,0.00,,2013-04-29 06:32:00,
2013-04-29 02:42:00,48.0,32.0,30.50,NNE,30,0.0,1.0,54,0.00,,,0.00,,2013-04-29 06:42:00,
2013-04-29 02:52:00,48.0,34.0,30.50,NNE,30,0.0,0.0,59,0.00,,,0.00,,2013-04-29 06:52:00,
2013-04-29 03:01:00,47.0,34.0,30.50,NNE,30,0.0,0.0,61,0.00,,,0.00,,2013-04-29 07:01:00,
2013-04-29 03:11:00,47.0,34.0,30.50,NNE,30,0.0,0.0,61,0.00,,,0.00,,2013-04-29 07:11:00,
2013-04-29 03:21:00,47.0,36.0,30.50,NNE,30,0.0,1.0,66,0.00,,,0.00,,2013-04-29 07:21:00,
2013-04-29 03:32:00,47.0,37.0,30.49,NNE,30,0.0,0.0,68,0.00,,,0.00,,2013-04-29 07:32:00,
2013-04-29 03:42:00,47.0,37.0,30.49,NNE,30,0.0,0.0,68,0.00,,,0.00,,2013-04-29 07:42:00,
2013-04-29 03:52:00,47.0,38.0,30.49,NNE,30,0.0,1.0,71,0.00,,,0.00,,2013-04-29 07:52:00,
2013-04-29 04:03:00,47.0,39.0,30.49,NNE,30,0.0,0.0,73,0.00,,,0.00,,2013-04-29 08:03:00,
2013-04-29 04:11:00,47.0,39.0,30.49,NNE,30,0.0,0.0,73,0.00,,,0.00,,2013-04-29 08:11:00,
2013-04-29 04:21:00,47.0,39.0,30.49,NNE,30,0.0,0.0,75,0.00,,,0.00,,2013-04-29 08:21:00,
2013-04-29 04:32:00,47.0,40.0,30.49,NNE,30,0.0,0.0,76,0.00,,,0.00,,2013-04-29 08:32:00,
2013-04-29 04:42:00,47.0,40.0,30.49,NNE,30,0.0,0.0,76,0.00,,,0.00,,2013-04-29 08:42:00,
2013-04-29 04:52:00,46.0,40.0,30.50,WNW,288,0.0,0.0,78,0.00,,,0.00,,2013-04-29 08:52:00,
2013-04-29 05:01:00,46.0,40.0,30.50,WNW,288,0.0,0.0,79,0.00,,,0.00,,2013-04-29 09:01:00,
2013-04-29 05:12:00,46.0,40.0,30.50,WNW,288,0.0,0.0,79,0.00,,,0.00,,2013-04-29 09:12:00,
2013-04-29 05:21:00,45.0,40.0,30.50,WNW,288,0.0,0.0,82,0.00,,,0.00,,2013-04-29 09:21:00,
2013-04-29 05:33:00,45.0,40.0,30.50,WNW,288,0.0,1.0,82,0.00,,,0.00,,2013-04-29 09:33:00,
2013-04-29 05:42:00,45.0,40.0,30.50,WNW,288,0.0,1.0,82,0.00,,,0.00,,2013-04-29 09:42:00,
2013-04-29 05:53:00,44.0,39.0,30.50,WNW,288,0.0,0.0,83,0.00,,,0.00,,2013-04-29 09:53:00,
2013-04-29 06:02:00,44.0,39.0,30.50,WNW,288,0.0,0.0,84,0.00,,,0.00,,2013-04-29 10:02:00,
2013-04-29 06:12:00,44.0,39.0,30.50,WNW,288,0.0,0.0,84,0.00,,,0.00,,2013-04-29 10:12:00,
2013-04-29 06:23:00,44.0,40.0,30.51,WNW,288,0.0,0.0,87,0.00,,,0.00,,2013-04-29 10:23:00,
2013-04-29 06:32:00,44.0,40.0,30.51,West,277,0.0,0.0,86,0.00,,,0.00,,2013-04-29 10:32:00,
2013-04-29 06:42:00,44.0,40.0,30.51,West,277,0.0,0.0,86,0.00,,,0.00,,2013-04-29 10:42:00,
2013-04-29 06:52:00,46.0,42.0,30.51,West,277,0.0,1.0,87,0.00,,,0.00,,2013-04-29 10:52:00,
2013-04-29 07:03:00,46.0,42.0,30.51,West,277,0.0,0.0,86,0.00,,,0.00,,2013-04-29 11:03:00,
2013-04-29 07:12:00,46.0,42.0,30.51,West,277,0.0,0.0,86,0.00,,,0.00,,2013-04-29 11:12:00,
2013-04-29 07:22:00,47.0,43.0,30.52,West,277,0.0,1.0,85,0.00,,,0.00,,2013-04-29 11:22:00,
2013-04-29 07:32:00,47.0,43.0,30.52,West,281,0.0,1.0,85,0.00,,,0.00,,2013-04-29 11:32:00,
2013-04-29 07:42:00,47.0,43.0,30.52,West,281,0.0,1.0,85,0.00,,,0.00,,2013-04-29 11:42:00,
2013-04-29 07:52:00,49.0,44.0,30.53,West,281,0.0,1.0,83,0.00,,,0.00,,2013-04-29 11:52:00,
2013-04-29 08:01:00,49.0,44.0,30.53,West,281,0.0,0.0,82,0.00,,,0.00,,2013-04-29 12:01:00,
2013-04-29 08:12:00,49.0,44.0,30.53,West,281,0.0,0.0,82,0.00,,,0.00,,2013-04-29 12:12:00,
2013-04-29 08:22:00,51.0,45.0,30.53,WSW,240,0.0,1.0,81,0.00,,,0.00,,2013-04-29 12:22:00,
2013-04-29 08:32:00,52.0,46.0,30.53,SW,235,0.0,2.0,79,0.00,,,0.00,,2013-04-29 12:32:00,
2013-04-29 08:42:00,52.0,46.0,30.53,SW,235,0.0,2.0,79,0.00,,,0.00,,2013-04-29 12:42:00,
2013-04-29 08:52:00,54.0,46.0,30.53,WNW,293,1.0,2.0,74,0.00,,,0.00,,2013-04-29 12:52:00,
2013-04-29 09:01:00,55.0,46.0,30.52,West,280,1.0,5.0,72,0.00,,,0.00,,2013-04-29 13:01:00,
2013-04-29 09:11:00,55.0,46.0,30.52,West,280,1.0,5.0,72,0.00,,,0.00,,2013-04-29 13:11:00,
2013-04-29 09:21:00,56.0,47.0,30.52,West,259,1.0,3.0,71,0.00,,,0.00,,2013-04-29 13:21:00,
2013-04-29 09:32:00,56.0,46.0,30.52,WSW,258,1.0,3.0,70,0.00,,,0.00,,2013-04-29 13:32:00,
2013-04-29 09:42:00,56.0,46.0,30.52,WSW,258,1.0,3.0,70,0.00,,,0.00,,2013-04-29 13:42:00,
2013-04-29 09:52:00,58.0,47.0,30.52,WSW,255,1.0,3.0,67,0.00,,,0.00,,2013-04-29 13:52:00,
2013-04-29 10:02:00,58.0,47.0,30.52,WSW,252,0.0,3.0,67,0.00,,,0.00,,2013-04-29 14:02:00,
2013-04-29 10:12:00,58.0,47.0,30.52,WSW,252,0.0,3.0,67,0.00,,,0.00,,2013-04-29 14:12:00,
2013-04-29 10:21:00,60.0,48.0,30.51,East,83,1.0,3.0,65,0.00,,,0.00,,2013-04-29 14:21:00,
2013-04-29 10:32:00,61.0,49.0,30.51,WSW,250,1.0,3.0,64,0.00,,,0.00,,2013-04-29 14:32:00,
2013-04-29 10:42:00,61.0,49.0,30.51,WSW,250,1.0,3.0,64,0.00,,,0.00,,2013-04-29 14:42:00,
2013-04-29 10:52:00,63.0,50.0,30.51,SE,136,1.0,3.0,62,0.00,,,0.00,,2013-04-29 14:52:00,
2013-04-29 11:01:00,64.0,50.0,30.50,NW,311,1.0,5.0,61,0.00,,,0.00,,2013-04-29 15:01:00,
2013-04-29 11:12:00,64.0,50.0,30.50,NW,311,1.0,5.0,61,0.00,,,0.00,,2013-04-29 15:12:00,
2013-04-29 11:21:00,65.0,48.0,30.50,WNW,302,1.0,5.0,54,0.00,,,0.00,,2013-04-29 15:21:00,
2013-04-29 11:33:00,65.0,46.0,30.50,East,96,2.0,5.0,51,0.00,,,0.00,,2013-04-29 15:33:00,
2013-04-29 11:42:00,65.0,46.0,30.50,East,96,2.0,5.0,51,0.00,,,0.00,,2013-04-29 15:42:00,
2013-04-29 11:53:00,67.0,48.0,30.49,West,262,2.0,6.0,50,0.00,,,0.00,,2013-04-29 15:53:00,
2013-04-29 12:03:00,67.0,48.0,30.49,WSW,238,2.0,6.0,50,0.00,,,0.00,,2013-04-29 16:03:00,
2013-04-29 12:12:00,67.0,48.0,30.49,WSW,238,2.0,6.0,50,0.00,,,0.00,,2013-04-29 16:12:00,
2013-04-29 12:23:00,68.0,48.0,30.49,WSW,250,2.0,3.0,48,0.00,,,0.00,,2013-04-29 16:23:00,
2013-04-29 12:33:00,68.0,49.0,30.48,WNW,294,2.0,6.0,50,0.00,,,0.00,,2013-04-29 16:33:00,
2013-04-29 12:42:00,68.0,49.0,30.48,WNW,294,2.0,6.0,50,0.00,,,0.00,,2013-04-29 16:42:00,
2013-04-29 12:52:00,68.0,50.0,30.47,East,91,1.0,5.0,53,0.00,,,0.00,,2013-04-29 16:52:00,
2013-04-29 13:02:00,70.0,48.0,30.47,ENE,70,2.0,8.0,46,0.00,,,0.00,,2013-04-29 17:02:00,
2013-04-29 13:12:00,70.0,48.0,30.47,ENE,70,2.0,8.0,46,0.00,,,0.00,,2013-04-29 17:12:00,
2013-04-29 13:22:00,69.0,46.0,30.47,NE,55,1.0,7.0,43,0.00,,,0.00,,2013-04-29 17:22:00,
2013-04-29 13:32:00,68.0,45.0,30.46,West,274,2.0,7.0,44,0.00,,,0.00,,2013-04-29 17:32:00,
2013-04-29 13:42:00,68.0,45.0,30.46,West,274,2.0,7.0,44,0.00,,,0.00,,2013-04-29 17:42:00,
2013-04-29 13:52:00,67.0,46.0,30.46,WNW,294,1.0,3.0,46,0.00,,,0.00,,2013-04-29 17:52:00,
2013-04-29 14:01:00,67.0,46.0,30.45,West,274,1.0,3.0,47,0.00,,,0.00,,2013-04-29 18:01:00,
2013-04-29 14:13:00,67.0,46.0,30.45,West,274,1.0,3.0,47,0.00,,,0.00,,2013-04-29 18:13:00,
2013-04-29 14:22:00,68.0,47.0,30.45,ENE,63,3.0,7.0,47,0.00,,,0.00,,2013-04-29 18:22:00,
2013-04-29 14:32:00,68.0,46.0,30.45,West,259,2.0,8.0,46,0.00,,,0.00,,2013-04-29 18:32:00,
2013-04-29 14:42:00,68.0,46.0,30.45,West,259,2.0,8.0,46,0.00,,,0.00,,2013-04-29 18:42:00,
2013-04-29 14:52:00,70.0,45.0,30.45,NE,39,3.0,10.0,41,0.00,,,0.00,,2013-04-29 18:52:00,
2013-04-29 15:01:00,70.0,47.0,30.45,WNW,285,1.0,6.0,44,0.00,,,0.00,,2013-04-29 19:01:00,
2013-04-29 15:11:00,70.0,47.0,30.45,WNW,285,1.0,6.0,44,0.00,,,0.00,,2013-04-29 19:11:00,
2013-04-29 15:22:00,70.0,46.0,30.44,SW,217,2.0,6.0,43,0.00,,,0.00,,2013-04-29 19:22:00,
2013-04-29 15:32:00,70.0,46.0,30.44,SE,131,2.0,10.0,43,0.00,,,0.00,,2013-04-29 19:32:00,
2013-04-29 15:42:00,70.0,46.0,30.44,SE,131,2.0,10.0,43,0.00,,,0.00,,2013-04-29 19:42:00,
2013-04-29 15:52:00,69.0,44.0,30.43,ENE,78,2.0,5.0,40,0.00,,,0.00,,2013-04-29 19:52:00,
2013-04-29 16:02:00,69.0,44.0,30.43,WSW,253,5.0,12.0,40,0.00,,,0.00,,2013-04-29 20:02:00,
2013-04-29 16:12:00,69.0,44.0,30.43,WSW,253,5.0,12.0,40,0.00,,,0.00,,2013-04-29 20:12:00,
2013-04-29 16:22:00,68.0,44.0,30.43,WNW,292,2.0,9.0,42,0.00,,,0.00,,2013-04-29 20:22:00,
2013-04-29 16:32:00,68.0,43.0,30.43,WNW,296,3.0,8.0,41,0.00,,,0.00,,2013-04-29 20:32:00,
2013-04-29 16:42:00,68.0,43.0,30.43,WNW,296,3.0,8.0,41,0.00,,,0.00,,2013-04-29 20:42:00,
2013-04-29 16:52:00,67.0,43.0,30.43,ESE,105,2.0,8.0,41,0.00,,,0.00,,2013-04-29 20:52:00,
2013-04-29 17:01:00,67.0,42.0,30.43,West,263,2.0,12.0,40,0.00,,,0.00,,2013-04-29 21:01:00,
2013-04-29 17:11:00,67.0,42.0,30.43,West,263,2.0,12.0,40,0.00,,,0.00,,2013-04-29 21:11:00,
2013-04-29 17:22:00,66.0,39.0,30.43,ENE,73,3.0,13.0,37,0.00,,,0.00,,2013-04-29 21:22:00,
2013-04-29 17:33:00,66.0,39.0,30.43,East,85,2.0,6.0,37,0.00,,,0.00,,2013-04-29 21:33:00,
2013-04-29 17:43:00,66.0,39.0,30.43,East,85,2.0,6.0,37,0.00,,,0.00,,2013-04-29 21:43:00,
2013-04-29 17:53:00,65.0,37.0,30.43,East,84,3.0,10.0,36,0.00,,,0.00,,2013-04-29 21:53:00,
2013-04-29 18:02:00,65.0,37.0,30.44,East,83,2.0,10.0,36,0.00,,,0.00,,2013-04-29 22:02:00,
2013-04-29 18:13:00,65.0,37.0,30.44,East,83,2.0,10.0,36,0.00,,,0.00,,2013-04-29 22:13:00,
2013-04-29 18:23:00,63.0,36.0,30.44,SW,228,3.0,8.0,37,0.00,,,0.00,,2013-04-29 22:23:00,
2013-04-29 18:32:00,63.0,37.0,30.44,ENE,58,1.0,7.0,38,0.00,,,0.00,,2013-04-29 22:32:00,
2013-04-29 18:42:00,63.0,37.0,30.44,ENE,58,1.0,7.0,38,0.00,,,0.00,,2013-04-29 22:42:00,
2013-04-29 18:53:00,62.0,35.0,30.45,ESE,122,2.0,7.0,37,0.00,,,0.00,,2013-04-29 22:53:00,
2013-04-29 19:02:00,62.0,36.0,30.45,SSE,152,0.0,3.0,38,0.00,,,0.00,,2013-04-29 23:02:00,
2013-04-29 19:12:00,62.0,36.0,30.45,SSE,152,0.0,3.0,38,0.00,,,0.00,,2013-04-29 23:12:00,
2013-04-29 19:22:00,61.0,36.0,30.45,NE,52,0.0,2.0,40,0.00,,,0.00,,2013-04-29 23:22:00,
2013-04-29 19:32:00,61.0,37.0,30.45,East,84,0.0,3.0,41,0.00,,,0.00,,2013-04-29 23:32:00,
2013-04-29 19:42:00,61.0,37.0,30.45,East,84,0.0,3.0,41,0.00,,,0.00,,2013-04-29 23:42:00,
2013-04-29 19:53:00,60.0,37.0,30.45,East,81,0.0,1.0,42,0.00,,,0.00,,2013-04-29 23:53:00,
2013-04-29 20:01:00,60.0,34.0,30.45,NNW,327,1.0,3.0,38,0.00,,,0.00,,2013-04-30 00:01:00,
2013-04-29 20:11:00,60.0,34.0,30.45,NNW,327,1.0,3.0,38,0.00,,,0.00,,2013-04-30 00:11:00,
2013-04-29 20:21:00,61.0,34.0,30.46,WSW,240,0.0,5.0,36,0.00,,,0.00,,2013-04-30 00:21:00,
2013-04-29 20:32:00,60.0,33.0,30.47,WNW,285,2.0,7.0,36,0.00,,,0.00,,2013-04-30 00:32:00,
2013-04-29 20:42:00,60.0,33.0,30.47,WNW,285,2.0,7.0,36,0.00,,,0.00,,2013-04-30 00:42:00,
2013-04-29 20:52:00,60.0,33.0,30.47,West,264,1.0,3.0,36,0.00,,,0.00,,2013-04-30 00:52:00,
2013-04-29 21:02:00,59.0,33.0,30.47,West,277,0.0,3.0,37,0.00,,,0.00,,2013-04-30 01:02:00,
2013-04-29 21:11:00,59.0,33.0,30.47,West,277,0.0,3.0,37,0.00,,,0.00,,2013-04-30 01:11:00,
2013-04-29 21:22:00,58.0,32.0,30.48,WSW,244,0.0,2.0,37,0.00,,,0.00,,2013-04-30 01:22:00,
2013-04-29 21:32:00,57.0,32.0,30.49,WSW,258,0.0,1.0,38,0.00,,,0.00,,2013-04-30 01:32:00,
2013-04-29 21:41:00,57.0,32.0,30.49,WSW,258,0.0,1.0,38,0.00,,,0.00,,2013-04-30 01:41:00,
2013-04-29 21:52:00,57.0,32.0,30.49,SSE,148,0.0,2.0,38,0.00,,,0.00,,2013-04-30 01:52:00,
2013-04-29 22:01:00,56.0,30.0,30.49,SSW,212,0.0,1.0,37,0.00,,,0.00,,2013-04-30 02:01:00,
2013-04-29 22:11:00,56.0,30.0,30.49,SSW,212,0.0,1.0,37,0.00,,,0.00,,2013-04-30 02:11:00,
2013-04-29 22:21:00,55.0,30.0,30.49,WSW,243,0.0,1.0,38,0.00,,,0.00,,2013-04-30 02:21:00,
2013-04-29 22:31:00,55.0,30.0,30.49,WSW,250,0.0,1.0,38,0.00,,,0.00,,2013-04-30 02:31:00,
2013-04-29 22:41:00,55.0,30.0,30.49,WSW,250,0.0,1.0,38,0.00,,,0.00,,2013-04-30 02:41:00,
2013-04-29 22:52:00,54.0,30.0,30.49,WSW,253,0.0,1.0,39,0.00,,,0.00,,2013-04-30 02:52:00,
2013-04-29 23:01:00,54.0,30.0,30.49,WSW,253,0.0,0.0,39,0.00,,,0.00,,2013-04-30 03:01:00,
2013-04-29 23:11:00,54.0,30.0,30.49,WSW,253,0.0,0.0,39,0.00,,,0.00,,2013-04-30 03:11:00,
2013-04-29 23:21:00,53.0,29.0,30.49,WSW,253,0.0,0.0,40,0.00,,,0.00,,2013-04-30 03:21:00,
2013-04-29 23:33:00,53.0,30.0,30.50,WSW,253,0.0,0.0,41,0.00,,,0.00,,2013-04-30 03:33:00,
2013-04-29 23:43:00,53.0,30.0,30.50,WSW,253,0.0,0.0,41,0.00,,,0.00,,2013-04-30 03:43:00,
2013-04-29 23:52:00,53.0,30.0,30.50,WSW,253,0.0,1.0,41,0.00,,,0.00,,2013-04-30 03:52:00,